Regional Weather Roundup
Issued by NWS

Home | Current Version | Previous Version | Graphics & Text | Print | Product List | Glossary On
Versions: 1 2 3 4 5 6 7 8 9 10 11 12 13 14 15 16 17 18 19 20 21 22 23 24 25 26 27 28 29 30 31 32 33 34 35 36 37 38 39 40 41 42 43 44 45 46 47 48 49 50
000
ASUS43 KOAX 300902
RWRNE
WEATHER ROUNDUP FOR NEBRASKA
NATIONAL WEATHER SERVICE OMAHA NE
400 AM CDT SAT MAY 30 2015

NOTES: SATELLITE DATA IS BEING USED TO AUGMENT CLOUD COVER ABOVE
       12000 FEET.
       "FAIR" INDICATES FEW OR NO CLOUDS BELOW 12,000 FEET WITH NO
       SIGNIFICANT WEATHER AND/OR OBSTRUCTIONS TO VISIBILITY.

  * THESE STATIONS DO NOT REPORT WEATHER SUCH AS RAIN...SNOW OR FOG.

NEZ001>004-019>022-054>056-301000-
NEBRASKA PANHANDLE

CITY           SKY/WX    TMP DP  RH WIND       PRES   REMARKS
SCOTTSBLUFF    CLOUDY    47  45  93 SE7       30.30S
ALLIANCE       FOG       35  34  96 SW3       30.29S VSB 1/4
CHADRON        FOG       36  35  96 CALM      30.30R VSB 1
KIMBALL          N/A    N/A N/A N/A MISG        N/A
SIDNEY         CLOUDY    46  43  89 NE6       30.31F
$$

NEZ057>060-069>072-079>082-301000-
SOUTHWEST NEBRASKA

CITY           SKY/WX    TMP DP  RH WIND       PRES   REMARKS
NORTH PLATTE   CLEAR     38  36  92 NW6       30.29R WCI  33
IMPERIAL       CLEAR     44  40  85 N7        30.30F
LEXINGTON      PTCLDY    48  43  82 N12       30.24F
MCCOOK         CLEAR     46  41  82 NW10      30.27S
$$

NEZ005>010-023>029-035>040-094-301000-
NORTH CENTRAL NEBRASKA

CITY           SKY/WX    TMP DP  RH WIND       PRES   REMARKS
VALENTINE      CLEAR     41  37  86 N8        30.29S
AINSWORTH      PTCLDY    42  39  90 NW6       30.28R
BROKEN BOW     PTCLDY    45  40  82 N10       30.24S
ORD            MOCLDY    46  40  79 N12       30.21S
$$

NEZ041-046>049-061>064-073>077-083>087-301000-
SOUTH CENTRAL NEBRASKA

CITY           SKY/WX    TMP DP  RH WIND       PRES   REMARKS
GRAND ISLAND   PTCLDY    48  42  80 N17       30.20S
HASTINGS       CLOUDY    50  42  74 N17G25    30.19S
KEARNEY *      CLOUDY    48  39  71 N14       30.22R
$$

NEZ011>018-030>034-042>045-301000-
NORTHEAST NEBRASKA

CITY           SKY/WX    TMP DP  RH WIND       PRES   REMARKS
NORFOLK        LGT RAIN  49  44  83 N13       30.17S
BLAIR          CLOUDY    50  45  83 N17G24    30.10R
COLUMBUS *     CLOUDY    50  41  71 N13       30.18S
FREMONT        CLOUDY    52  44  75 N12G23    30.13S
TEKAMAH        CLOUDY    53  46  77 N16       30.11F
$$

NEZ050>053-065>068-078-088>093-301000-
SOUTHEAST NEBRASKA

CITY           SKY/WX    TMP DP  RH WIND       PRES   REMARKS
LINCOLN        CLOUDY    52  45  77 N21G30    30.14R
OMAHA EPPLEY   CLOUDY    51  47  86 N15       30.09S
FALLS CITY     CLOUDY    54  53  97 N15G22    30.04S FOG
NEBRASKA CITY  CLOUDY    52  51  95 N15       30.08S
PLATTSMOUTH    CLOUDY    51  47  86 N13G18    30.09R
$$

NEZ044-045-051>053-067-301000-
OMAHA AREA

CITY           SKY/WX    TMP DP  RH WIND       PRES   REMARKS
OMAHA EPPLEY   CLOUDY    51  47  86 N15       30.09S
BLAIR          CLOUDY    50  45  83 N17G24    30.10R
FREMONT        CLOUDY    52  44  75 N12G23    30.13S
OFFUTT AFB     CLOUDY    51  47  86 N15G21    30.09R
PLATTSMOUTH    CLOUDY    51  47  86 N13G18    30.09R
$$


USA.gov is the U.S. government's official web portal to all federal, state and local government web resources and services.